Regional Weather Roundup
Issued by NWS Burlington, VT

Home | Current Version | Previous Version | Text Only | Print | Product List | Glossary On
Versions: 1 2 3 4 5 6 7 8 9 10 11 12 13 14 15 16 17 18 19 20 21 22 23 24 25 26 27 28 29 30 31 32 33 34 35 36 37 38 39 40 41 42 43 44 45 46 47 48 49 50
000
ASUS41 KBTV 011830
RWRBTV
VERMONT REGIONAL WEATHER ROUNDUP
NATIONAL WEATHER SERVICE BURLINGTON VT
200 PM EDT WED OCT 01 2014

NOTE: "FAIR" INDICATES FEW OR NO CLOUDS BELOW 12,000 FEET WITH NO
SIGNIFICANT WEATHER AND/OR OBSTRUCTIONS TO VISIBILITY.

* THESE REPORTS ARE NOT UNDER NWS QUALITY CONTROL AND/OR DO NOT
  REPORT WEATHER SUCH AS PRECIPITATION AND FOG.

VTZ001>019-011900-
_____VERMONT_____


CITY           SKY/WX    TMP DP  RH WIND       PRES   REMARKS
BURLINGTON     CLOUDY    57  52  83 N6        30.13F HAZE
6HR MIN TEMP:  53; 6HR MAX TEMP:  57;

MONTPELIER     CLOUDY    63  51  65 NE6       30.14F
6HR MIN TEMP:  54; 6HR MAX TEMP:  64;

MORRISVILLE    FAIR      65  54  67 N6        30.12F
6HR MIN TEMP:  53; 6HR MAX TEMP:  65;

ST. JOHNSBURY*   N/A     64  52  64 MISG      30.09F
6HR MIN TEMP:  55; 6HR MAX TEMP:  65;

MIDDLEBURY*    CLOUDY    61  58  90 W5        30.11F
6HR MIN TEMP:  55; 6HR MAX TEMP:  62;

RUTLAND*       CLOUDY    61  55  82 N6        30.10S
6HR MIN TEMP:  57; 6HR MAX TEMP:  61;

SPRINGFIELD    CLOUDY    60  56  86 CALM      30.11F
6HR MIN TEMP:  56; 6HR MAX TEMP:  61; 6HR PCP:  0.26;

HIGHGATE*      CLOUDY    56  52  85 CALM      30.13F
6HR MIN TEMP:  49; 6HR MAX TEMP:  57;

NEWPORT*       FAIR     N/A N/A N/A N7        30.13F
BENNINGTON     CLOUDY    61  54  77 N5        30.09F
6HR MIN TEMP:  57; 6HR MAX TEMP:  63; 6HR PCP:  0.01;

SUTTON*          N/A     63 N/A N/A MISG        N/A
ISLAND POND*     N/A     64 N/A N/A NE3         N/A
GALLUP MILLS*    N/A     61 N/A N/A MISG        N/A
UNION VILLAGE*   N/A     63 N/A N/A MISG        N/A
MT. MANSFIELD*   N/A     52 N/A N/A SE9         N/A

_____LAKE CHAMPLAIN_____


CITY           SKY/WX    TMP DP  RH WIND       PRES   REMARKS
BURTON ISLAND*   N/A     55  52  88 NW1         N/A
COLCHESTER RF*   N/A     54  52  94 N9          N/A
DIAMOND ISL*     N/A     55  52  88 N16         N/A

$$

NYZ007-026>031-035-052-083-011900-
_____NORTHERN NEW YORK_____


CITY           SKY/WX    TMP DP  RH WIND       PRES   REMARKS
PLATTSBURGH    CLOUDY    57  51  80 N7        30.13S
6HR MIN TEMP:  50; 6HR MAX TEMP:  56;

SARANAC LAKE   FAIR      64  53  67 E10       30.09F
6HR MIN TEMP:  52; 6HR MAX TEMP:  66;

MASSENA        FAIR      61  54  77 NE14      30.12F
6HR MIN TEMP:  54; 6HR MAX TEMP:  62;

OGDENSBURG*    CLOUDY    64  55  72 N8        30.10S
POTSDAM*       PTCLDY    63  57  82 NE9G18    30.09F
PARISHVILLE*     N/A     68 N/A N/A E1          N/A
WATERTOWN      FAIR      71  56  58 N9        30.06F
6HR MIN TEMP:  56; 6HR MAX TEMP:  71;

FT DRUM        FAIR      68  55  63 N6        30.06F
6HR MIN TEMP:  53; 6HR MAX TEMP:  68;

ALBANY         CLOUDY    64  58  80 N6        30.08F
6HR MIN TEMP:  60; 6HR MAX TEMP:  64; 6HR PCP:  0.02;

GLENS FALLS    MOCLDY    66  53  63 NE6       30.08F
6HR MIN TEMP:  59; 6HR MAX TEMP:  67;


$$
NHZ002-005-011-011900-
_____NEW HAMPSHIRE_____


CITY           SKY/WX    TMP DP  RH WIND       PRES   REMARKS
LEBANON        CLOUDY    63  56  78 CALM      30.10F
6HR MIN TEMP:  58; 6HR MAX TEMP:  64; 6HR PCP:  0.02;

KEENE          CLOUDY    57  48  72 N3        30.10F
6HR MIN TEMP:  55; 6HR MAX TEMP:  59; 6HR PCP:  0.09;

MT WASHINGTON  CLOUDY    50  46  87 SE5         N/A
6HR MIN TEMP:  42; 6HR MAX TEMP:  50;

PLYMOUTH       CLOUDY    62  57  85 CALM      30.10F
6HR MIN TEMP:  55; 6HR MAX TEMP:  62;

WHITEFIELD     CLOUDY    63  51  65 E8        30.12F
6HR MIN TEMP:  53; 6HR MAX TEMP:  63;


$$

_____REGIONAL QUEBEC LOCATIONS_____


CITY           SKY/WX    TMP DP  RH WIND       PRES   REMARKS
MONTREAL       CLOUDY    59  50  72 NE8       30.14F
QUEBEC CITY    PTCLDY    57  45  62 NE10G17   30.19
SHERBROOKE     CLOUDY    63  55  77 VRB2      30.13F

_____REGIONAL ONTARIO LOCATIONS_____


CITY           SKY/WX    TMP DP  RH WIND       PRES   REMARKS
OTTAWA         PTCLDY    66  54  63 NE8       30.12F

______KEY______
VSB  - VISIBILITY IN MILES
WCI  - WIND CHILL INDEX
HX   - HEAT INDEX
$$
NNNN


USA.gov is the U.S. government's official web portal to all federal, state and local government web resources and services.